| time (UTC) | temp C | wind direction | speed KPH | gust KPH | rain 1hr cm | rain 24hr cm | rain mn cm | humidity % | barometer mb |
| 20260507050039 | 6 | 234 | 3.2 | 8.0 | 0.00 | 0.00 | 0.00 | 63 | 1006.7 |
| 20260507044534 | 7 | 241 | 1.6 | 8.0 | 0.00 | 0.00 | 0.00 | 65 | 1006.7 |
| 20260507043039 | 7 | 238 | 3.2 | 9.7 | 0.00 | 0.00 | 0.00 | 66 | 1006.9 |
| 20260507041550 | 7 | 250 | 4.8 | 11.3 | 0.00 | 0.00 | 0.00 | 67 | 1007.0 |
| 20260507040037 | 7 | 223 | 4.8 | 11.3 | 0.00 | 0.00 | 0.00 | 67 | 1007.1 |
| 20260507034538 | 8 | 245 | 4.8 | 11.3 | 0.00 | 0.00 | 0.00 | 68 | 1007.2 |
| 20260507033036 | 8 | 241 | 4.8 | 14.5 | 0.00 | 0.00 | 0.00 | 68 | 1007.3 |
| 20260507031538 | 8 | 221 | 6.4 | 14.5 | 0.00 | 0.00 | 0.00 | 68 | 1007.4 |
| 20260507030038 | 8 | 213 | 6.4 | 14.5 | 0.00 | 0.00 | 0.00 | 68 | 1007.4 |
| 20260507024538 | 8 | 224 | 6.4 | 16.1 | 0.00 | 0.00 | 0.00 | 68 | 1007.4 |
| 20260507023037 | 8 | 181 | 4.8 | 16.1 | 0.00 | 0.00 | 0.00 | 68 | 1007.4 |
| 20260507021537 | 8 | 249 | 4.8 | 14.5 | 0.00 | 0.00 | 0.00 | 68 | 1007.3 |
| 20260507020032 | 8 | 230 | 4.8 | 16.1 | 0.00 | 0.00 | 0.00 | 68 | 1007.3 |
| 20260507014550 | 8 | 200 | 6.4 | 16.1 | 0.00 | 0.00 | 0.00 | 67 | 1007.4 |
| 20260507013047 | 8 | 198 | 6.4 | 14.5 | 0.00 | 0.00 | 0.00 | 67 | 1007.4 |
| 20260507011541 | 8 | 201 | 6.4 | 16.1 | 0.00 | 0.00 | 0.00 | 67 | 1007.4 |
| 20260507010037 | 9 | 211 | 8.0 | 16.1 | 0.00 | 0.00 | 0.00 | 67 | 1007.4 |
| 20260507004539 | 9 | 226 | 4.8 | 14.5 | 0.00 | 0.00 | 0.00 | 66 | 1007.4 |
| 20260507003034 | 9 | 223 | 4.8 | 17.7 | 0.00 | 0.00 | 0.00 | 66 | 1007.2 |
| 20260507001554 | 9 | 190 | 8.0 | 17.7 | 0.00 | 0.00 | 0.00 | 64 | 1007.0 |
| 20260507000039 | 10 | 212 | 8.0 | 17.7 | 0.00 | 0.00 | 0.00 | 63 | 1006.9 |
| 20260506234537 | 10 | 210 | 9.7 | 17.7 | 0.00 | 0.00 | 0.00 | 62 | 1006.9 |
| 20260506233044 | 10 | 204 | 6.4 | 17.7 | 0.00 | 0.00 | 0.00 | 62 | 1006.7 |
| 20260506231540 | 10 | 178 | 9.7 | 17.7 | 0.00 | 0.00 | 0.00 | 61 | 1006.4 |
| 20260506230035 | 11 | 211 | 6.4 | 17.7 | 0.00 | 0.00 | 0.00 | 61 | 1006.4 |
| 20260506224540 | 10 | 181 | 9.7 | 20.9 | 0.00 | 0.00 | 0.00 | 62 | 1006.6 |
| 20260506223047 | 10 | 190 | 8.0 | 20.9 | 0.00 | 0.00 | 0.00 | 62 | 1006.6 |
| 20260506221538 | 10 | 192 | 8.0 | 17.7 | 0.00 | 0.00 | 0.00 | 62 | 1006.4 |
| 20260506220038 | 10 | 174 | 8.0 | 19.3 | 0.00 | 0.00 | 0.00 | 61 | 1006.5 |
| 20260506214540 | 11 | 154 | 8.0 | 20.9 | 0.00 | 0.00 | 0.00 | 60 | 1006.6 |
| 20260506213037 | 11 | 169 | 6.4 | 17.7 | 0.00 | 0.00 | 0.00 | 59 | 1006.6 |
| 20260506211541 | 11 | 168 | 6.4 | 17.7 | 0.00 | 0.00 | 0.00 | 58 | 1006.5 |
| 20260506210041 | 11 | 190 | 8.0 | 22.5 | 0.00 | 0.00 | 0.00 | 58 | 1006.5 |
| 20260506204537 | 11 | 216 | 11.3 | 22.5 | 0.00 | 0.00 | 0.00 | 58 | 1006.5 |
| 20260506203043 | 12 | 113 | 8.0 | 17.7 | 0.00 | 0.00 | 0.00 | 56 | 1006.4 |
| 20260506201537 | 12 | 186 | 8.0 | 19.3 | 0.00 | 0.00 | 0.00 | 56 | 1006.6 |
| 20260506200049 | 12 | 207 | 9.7 | 20.9 | 0.00 | 0.00 | 0.00 | 56 | 1006.9 |
| 20260506194538 | 12 | 125 | 8.0 | 19.3 | 0.00 | 0.00 | 0.00 | 56 | 1006.9 |
| 20260506193033 | 12 | 179 | 6.4 | 19.3 | 0.00 | 0.00 | 0.00 | 56 | 1007.0 |
| 20260506191539 | 11 | 262 | 6.4 | 20.9 | 0.00 | 0.00 | 0.00 | 59 | 1007.1 |
| 20260506190038 | 11 | 186 | 6.4 | 17.7 | 0.00 | 0.00 | 0.00 | 61 | 1007.0 |
| 20260506184537 | 11 | 205 | 11.3 | 22.5 | 0.00 | 0.00 | 0.00 | 60 | 1007.1 |
| 20260506183035 | 11 | 176 | 8.0 | 17.7 | 0.00 | 0.00 | 0.00 | 60 | 1007.2 |
| 20260506181539 | 10 | 201 | 6.4 | 17.7 | 0.00 | 0.00 | 0.00 | 64 | 1007.1 |
| 20260506180047 | 10 | 162 | 6.4 | 19.3 | 0.00 | 0.00 | 0.00 | 65 | 1007.3 |
| 20260506174537 | 9 | 212 | 8.0 | 19.3 | 0.00 | 0.00 | 0.00 | 66 | 1007.5 |
| 20260506173037 | 9 | 160 | 6.4 | 14.5 | 0.00 | 0.00 | 0.00 | 66 | 1007.5 |
| 20260506171548 | 8 | 167 | 6.4 | 16.1 | 0.00 | 0.00 | 0.00 | 66 | 1007.3 |
| 20260506170037 | 8 | 193 | 6.4 | 14.5 | 0.00 | 0.00 | 0.00 | 66 | 1007.6 |
| 20260506164533 | 8 | 171 | 4.8 | 12.9 | 0.00 | 0.00 | 0.00 | 66 | 1007.7 |
| 20260506163046 | 9 | 173 | 6.4 | 12.9 | 0.00 | 0.00 | 0.00 | 64 | 1007.5 |
| 20260506161548 | 9 | 194 | 4.8 | 16.1 | 0.00 | 0.00 | 0.00 | 63 | 1007.8 |
| 20260506160038 | 9 | 126 | 6.4 | 14.5 | 0.00 | 0.00 | 0.00 | 64 | 1007.9 |
| 20260506154536 | 9 | 234 | 6.4 | 14.5 | 0.00 | 0.00 | 0.00 | 64 | 1008.0 |
| 20260506153033 | 9 | 184 | 3.2 | 12.9 | 0.00 | 0.00 | 0.00 | 64 | 1007.9 |
| 20260506151540 | 9 | 153 | 1.6 | 11.3 | 0.00 | 0.00 | 0.00 | 63 | 1008.2 |
| 20260506150038 | 8 | 183 | 1.6 | 12.9 | 0.00 | 0.00 | 0.00 | 66 | 1008.5 |
| 20260506144537 | 8 | 206 | 8.0 | 16.1 | 0.00 | 0.00 | 0.00 | 66 | 1008.5 |
| 20260506143037 | 8 | 191 | 6.4 | 16.1 | 0.00 | 0.00 | 0.00 | 67 | 1008.3 |
| 20260506141534 | 8 | 183 | 4.8 | 16.1 | 0.00 | 0.00 | 0.00 | 67 | 1008.1 |
| 20260506140044 | 8 | 218 | 6.4 | 16.1 | 0.00 | 0.00 | 0.00 | 68 | 1008.2 |
| 20260506134607 | 8 | 176 | 6.4 | 14.5 | 0.00 | 0.18 | 0.00 | 68 | 1008.0 |
| 20260506133038 | 8 | 184 | 6.4 | 14.5 | 0.00 | 0.18 | 0.00 | 68 | 1008.0 |
| 20260506131546 | 8 | 169 | 3.2 | 11.3 | 0.00 | 0.18 | 0.00 | 68 | 1008.1 |
| 20260506130037 | 8 | 181 | 4.8 | 14.5 | 0.00 | 0.18 | 0.00 | 67 | 1008.1 |
| 20260506124541 | 8 | 204 | 3.2 | 9.7 | 0.00 | 0.18 | 0.00 | 68 | 1007.9 |
| 20260506123042 | 7 | 271 | 4.8 | 8.0 | 0.00 | 0.18 | 0.00 | 68 | 1008.1 |
| 20260506121539 | 7 | 179 | 3.2 | 6.4 | 0.00 | 0.18 | 0.00 | 68 | 1008.1 |
| 20260506120039 | 7 | 225 | 1.6 | 6.4 | 0.00 | 0.18 | 0.00 | 68 | 1008.1 |
| 20260506114543 | 7 | 195 | 1.6 | 6.4 | 0.00 | 0.18 | 0.00 | 68 | 1008.2 |
| 20260506113037 | 7 | 160 | 1.6 | 6.4 | 0.00 | 0.18 | 0.00 | 68 | 1008.0 |
| 20260506111537 | 7 | 0 | 0.0 | 3.2 | 0.00 | 0.18 | 0.00 | 67 | 1007.9 |
| 20260506110038 | 7 | 0 | 0.0 | 4.8 | 0.00 | 0.18 | 0.00 | 66 | 1007.9 |
| 20260506104541 | 7 | 199 | 1.6 | 4.8 | 0.00 | 0.18 | 0.00 | 65 | 1007.7 |
| 20260506103038 | 7 | 0 | 0.0 | 3.2 | 0.00 | 0.18 | 0.00 | 64 | 1007.9 |
| 20260506101536 | 7 | 0 | 0.0 | 3.2 | 0.00 | 0.18 | 0.00 | 64 | 1008.1 |
| 20260506100036 | 7 | 209 | 0.0 | 4.8 | 0.00 | 0.18 | 0.00 | 63 | 1008.3 |
| 20260506094539 | 7 | 172 | 0.0 | 3.2 | 0.00 | 0.18 | 0.00 | 60 | 1007.8 |
| 20260506093037 | 7 | 0 | 0.0 | 4.8 | 0.00 | 0.18 | 0.00 | 58 | 1007.9 |
| 20260506091540 | 8 | 0 | 0.0 | 3.2 | 0.00 | 0.18 | 0.00 | 55 | 1007.7 |
| 20260506090038 | 8 | 256 | 0.0 | 1.6 | 0.00 | 0.18 | 0.00 | 53 | 1007.5 |
| 20260506084536 | 8 | 0 | 0.0 | 3.2 | 0.00 | 0.18 | 0.00 | 53 | 1007.7 |
| 20260506083051 | 8 | 257 | 1.6 | 9.7 | 0.00 | 0.18 | 0.00 | 50 | 1007.9 |
| 20260506081546 | 8 | 239 | 3.2 | 8.0 | 0.00 | 0.18 | 0.00 | 50 | 1007.7 |
| 20260506073038 | 8 | 284 | 6.4 | 12.9 | 0.00 | 0.18 | 0.00 | 49 | 1007.7 |
| 20260506071535 | 8 | 234 | 3.2 | 9.7 | 0.00 | 0.18 | 0.00 | 49 | 1007.7 |
| 20260506061541 | 9 | 281 | 6.4 | 14.5 | 0.00 | 0.18 | 0.00 | 45 | 1007.6 |